STARLINK-1810, 46709

Orbit data source: Space-Track

STARLINK-1810, 46709 is a payload satellite owned by SpaceX/Seattle (US) in LEO that was launched on Sun, 18 Oct 2020 UTC via an FALCON 9 launch vehicle from the Air Force Eastern Test Range (AFETR). Payload-class satellites include a variety of spacecraft equipped with specific instruments for various scientific and technological missions. These include communications satellites like Starlink; space stations such as the ISS; scientific satellites like the Hubble; Earth observation satellites from companies like Planet Labs, Umbra, and HawkEye 360; GPS; miniature CubeSats for education and research; and military/defense satellites.

Loading next visibility...
Identifier
46709, 2020-073AR
Orbit
LEO
Country
Flag of USUS
Related business
Manufacturer
SpaceX/Seattle
Mission
Partially operational Commercial Communications
Bus & Motor
STARLINK, Unknown motor
Mass
260 kg wet, ~248 kg dry
Launch date (UTC)
2020-10-18 (6 years ago)
Launch vehicle
FALCON 9
Launch site
Air Force Eastern Test Range (AFETR)
Object type
Payload
Rocket body
Debris
Shape & HBR
Box + 1 Pan, 10.1 m
Radar Cross Section
13.562 m², Large (>1 m²)

Expand to show TLE details & history
Last TLE update: 4 hours ago

TLE from 4 hours ago
0 STARLINK-1810
1 46709U 20073AR  26119.33335648  .00072231  00000-0  10169-2 0  9996
2 46709  53.0446 348.4217 0001378 177.3547 209.4058 15.56017698  5889
Epoch: 2026-04-29T08:00Z
TLE epoch observation values (Epoch: 2026-04-29T08:00:01.999Z)
Latitude
21.1317°
Longitude
27.925°
Altitude
400.569 km
Speed
7.673 km/s
True Right ascension
00h 20m 54s
True Declination
21° 00' 37"
Sunlit
Object was in daylight at epoch
Visualization orbit readout
Latitude
Unknown
Longitude
Unknown
Altitude
Unknown
Speed
Unknown
Apparent Right ascension
Unknown
Apparent Declination
Unknown
Sunlit
N/A
Visualization observer readout
Local Sidereal Time
19:02:47
Azimuth
Unknown
Elevation
Unknown
Doppler factor
Unknown
Orbital elements
Apogee altitude
400.408 km
Perigee altitude
398.54 km
Semi-major axis
6,777.611 km
Eccentricity
0.00014
Inclination
53.0446°
RAAN
348.4217°
Arg. of periapsis
177.3547°
True anomaly
209.39805°
Mean anomaly
209.4058°
Eccentric anomaly
209.40192°
Mean motion
3.88981 °/min
Orbital period
92.55 mins
BSTAR
0.0010169
Loading maneuver chart data...
Computing Atmospheric mass density...
Loading historical data...
Loading historical data...
Loading historical data...
Loading historical data...
Loading historical data...
Loading historical data...
Loading historical data...

Documentation

Showing up to 5 results
|